Lobo

Go HERE for most recent data if this page is not up to date.

Jump to table bottom
Date/Time Temp deg F RH % 24 Hr Snow (in) Snow Depth (in) H2O (in)
02/25 02:00 25.5 61 0.0 38.9 0.00
02/25 01:00 25.7 57 0.0 38.9 0.00
02/25 00:00 26.0 54 0.0 39.0 0.00
02/24 23:00 26.5 57 0.0 38.9 0.00
02/24 22:00 26.8 54 0.0 39.0 0.00
02/24 21:00 27.0 52 0.0 39.0 0.00
02/24 20:00 26.9 54 0.0 39.0 0.00
02/24 19:00 26.9 54 0.0 39.1 0.00
02/24 18:00 27.1 54 0.0 39.1 0.00
02/24 17:00 27.9 53 -0.0 39.1 0.00
02/24 16:00 28.9 52 -0.0 39.1 0.00
02/24 15:00 29.0 49 -0.1 39.2 0.00
02/24 14:00 29.6 47 -0.1 39.2 0.00
02/24 13:00 28.6 46 -0.1 39.2 0.00
02/24 12:00 27.1 51 0.0 39.3 0.00
02/24 11:00 25.8 48 0.0 39.2 0.00
02/24 10:00 25.0 54 0.0 39.3 0.00
02/24 09:00 23.3 58 0.2 39.4 0.00
02/24 08:00 22.5 55 0.2 39.4 0.00
02/24 07:00 21.7 57 0.2 39.4 0.00
02/24 06:00 21.2 58 0.2 39.5 0.00
02/24 05:00 20.7 60 0.2 39.5 0.00
02/24 04:00 20.9 60 0.1 39.6 0.00
02/24 03:00 21.1 58 0.2 39.5 0.00
02/24 02:00 21.2 55 0.1 39.5 0.00
02/24 01:00 21.5 54 0.1 39.5 0.00
02/24 00:00 21.5 53 0.2 39.7 0.00
.